User: anonymous   Login
Location: Unspecified
(0.0000°N, 0.0000°E)
Time: 19:46:14
(UTC+00:00)
Language:

PAYLOAD D - Orbit

View from above orbital plane
View from above orbital plane
View from above satellite
View from above satellite

Ground track
Ground track

The orbit data is extracted from the following two-line orbital elements,

1 27058U 01058D   21025.73200799  .00000005  00000-0 -30086-4 0  9990
2 27058  82.5350  24.6554 0004075 124.0474 236.1009 12.62027946878981
Epoch (UTC): 25 January 2021 17:34:05
Eccentricity: 0.0004075
inclination: 82.5350°
perigee height: 1411 km
apogee height: 1418 km
right ascension of ascending node: 24.6554°
argument of perigee: 124.0474°
revolutions per day: 12.62027946
mean anomaly at epoch: 236.1009°
orbit number at epoch: 87898

The dashed part of the orbit path shows where the satellite is in the earth's shadow,  

DLR